BAL225 EPWA-EPKK

Flight info

Callsign BAL225
Flight time 0h 35m
Altitude 28000
Route EVINA7G DCT KUKAM4H
Aircraft B763/H-SDE3FGHIM3RWXY/LB1

Departure

Time 2026-05-04 11:31
Airport Warsaw Chopin Airport (EPWA)

Arrival

Time 2026-05-04 12:07
Airport Kraków John Paul II International Airport (EPKK)
Time Latitude Longitude Altitude Speed Heading
2026-05-04 11:25 52.15763 20.97990 375 ft 0 kts 115°
2026-05-04 11:27 52.15841 20.98190 375 ft 10 kts 27°
2026-05-04 11:28 52.15894 20.98228 375 ft 10 kts 24°
2026-05-04 11:28 52.15938 20.98257 375 ft 3 kts 25°
2026-05-04 11:28 52.15962 20.98275 375 ft 2 kts 24°
2026-05-04 11:28 52.15967 20.98278 375 ft 0 kts 24°
2026-05-04 11:29 52.15988 20.98294 375 ft 2 kts 24°
2026-05-04 11:29 52.16005 20.98307 375 ft 2 kts 24°
2026-05-04 11:29 52.16009 20.98309 375 ft 0 kts 24°
2026-05-04 11:29 52.16064 20.98338 375 ft 8 kts
2026-05-04 11:31 52.18358 20.86905 3861 ft 242 kts 263°
2026-05-04 11:33 52.13613 20.68290 8876 ft 270 kts 225°
2026-05-04 11:33 52.12160 20.66304 9506 ft 273 kts 222°
2026-05-04 11:33 52.10640 20.64361 10212 ft 279 kts 221°
2026-05-04 11:34 52.09084 20.62428 10753 ft 279 kts 220°
2026-05-04 11:34 52.07529 20.60518 11353 ft 280 kts 220°
2026-05-04 11:34 52.05946 20.58577 11983 ft 283 kts 220°
2026-05-04 11:34 52.04376 20.56652 12604 ft 286 kts 220°
2026-05-04 11:35 52.02776 20.54690 13232 ft 291 kts 220°
2026-05-04 11:35 52.01110 20.52644 13862 ft 305 kts 220°
2026-05-04 11:35 51.99400 20.50536 14484 ft 317 kts 220°
2026-05-04 11:35 51.97614 20.48317 15112 ft 328 kts 220°
2026-05-04 11:36 51.95772 20.46060 15733 ft 340 kts 217°
2026-05-04 11:36 51.93601 20.44382 16362 ft 354 kts 201°
2026-05-04 11:36 51.91129 20.43521 16997 ft 365 kts 192°
2026-05-04 11:36 51.88588 20.43100 17622 ft 371 kts 188°
2026-05-04 11:37 51.86010 20.42808 18244 ft 375 kts 187°
2026-05-04 11:37 51.83379 20.42539 18873 ft 379 kts 187°
2026-05-04 11:37 51.80749 20.42280 19495 ft 382 kts 187°
2026-05-04 11:37 51.78064 20.41956 20126 ft 385 kts 188°
2026-05-04 11:38 51.75390 20.41580 20751 ft 387 kts 188°
2026-05-04 11:38 51.72708 20.41186 21376 ft 388 kts 189°
2026-05-04 11:38 51.70028 20.40789 21999 ft 389 kts 189°
2026-05-04 11:38 51.67335 20.40379 22625 ft 388 kts 189°
2026-05-04 11:39 51.64620 20.39911 23258 ft 387 kts 189°
2026-05-04 11:39 51.61961 20.39466 23881 ft 386 kts 189°
2026-05-04 11:40 51.46380 20.37234 27583 ft 361 kts 189°
2026-05-04 11:41 51.43871 20.36865 27833 ft 366 kts 189°
2026-05-04 11:41 51.41302 20.36460 27956 ft 374 kts 189°
2026-05-04 11:41 51.38659 20.36014 27990 ft 384 kts 190°
2026-05-04 11:41 51.35957 20.35524 27998 ft 395 kts 190°
2026-05-04 11:42 51.33224 20.35004 27999 ft 406 kts 190°
2026-05-04 11:42 51.30369 20.34450 27999 ft 418 kts 190°
2026-05-04 11:42 51.27447 20.33881 27999 ft 428 kts 190°
2026-05-04 11:43 51.21604 20.31663 28001 ft 431 kts 204°
2026-05-04 11:43 51.18879 20.29810 28000 ft 430 kts 207°
2026-05-04 11:43 51.16114 20.27841 28000 ft 430 kts 207°
2026-05-04 11:43 51.13372 20.25953 28000 ft 430 kts 206°
2026-05-04 11:44 51.10594 20.24165 27924 ft 432 kts 204°
2026-05-04 11:44 51.07805 20.22441 27604 ft 433 kts 204°
2026-05-04 11:44 51.05002 20.20742 27236 ft 430 kts 204°
2026-05-04 11:44 51.03130 20.19623 26985 ft 427 kts 204°
2026-05-04 11:45 50.99440 20.17451 26484 ft 422 kts 203°
2026-05-04 11:45 50.97627 20.16387 26236 ft 419 kts 203°
2026-05-04 11:45 50.94883 20.14760 25856 ft 416 kts 204°
2026-05-04 11:45 50.92200 20.13161 25483 ft 413 kts 204°
2026-05-04 11:46 50.89536 20.11577 25107 ft 406 kts 204°
2026-05-04 11:46 50.86905 20.09962 24727 ft 398 kts 205°
2026-05-04 11:46 50.84356 20.08372 24352 ft 391 kts 205°
2026-05-04 11:46 50.81850 20.06815 23976 ft 385 kts 203°
2026-05-04 11:47 50.79252 20.05830 23602 ft 384 kts 191°
2026-05-04 11:47 50.76590 20.05571 23224 ft 381 kts 185°
2026-05-04 11:47 50.73967 20.05573 22849 ft 376 kts 183°
2026-05-04 11:47 50.71365 20.05622 22473 ft 371 kts 183°
2026-05-04 11:48 50.68790 20.05691 22096 ft 367 kts 182°
2026-05-04 11:48 50.66260 20.05742 21720 ft 363 kts 184°
2026-05-04 11:48 50.63739 20.05747 21347 ft 358 kts 184°
2026-05-04 11:48 50.61256 20.05735 20954 ft 353 kts 184°
2026-05-04 11:49 50.58823 20.05712 20578 ft 349 kts 184°
2026-05-04 11:49 50.56421 20.05681 20204 ft 345 kts 185°
2026-05-04 11:49 50.54001 20.05643 19823 ft 341 kts 185°
2026-05-04 11:49 50.51655 20.05576 19449 ft 338 kts 185°
2026-05-04 11:50 50.49325 20.05498 19075 ft 335 kts 185°
2026-05-04 11:50 50.46979 20.05418 18694 ft 332 kts 185°
2026-05-04 11:50 50.44695 20.05335 18320 ft 329 kts 185°
2026-05-04 11:50 50.42413 20.05251 17944 ft 326 kts 185°
2026-05-04 11:51 50.40157 20.05164 17569 ft 324 kts 186°
2026-05-04 11:51 50.37893 20.05079 17189 ft 321 kts 185°
2026-05-04 11:51 50.35660 20.04997 16812 ft 319 kts 185°
2026-05-04 11:51 50.33462 20.04941 16439 ft 317 kts 185°
2026-05-04 11:52 50.31236 20.04931 16059 ft 316 kts 184°
2026-05-04 11:52 50.29048 20.04935 15683 ft 314 kts 184°
2026-05-04 11:52 50.26872 20.04944 15306 ft 312 kts 184°
2026-05-04 11:52 50.24718 20.04943 14932 ft 310 kts 185°
2026-05-04 11:53 50.22606 20.04409 14552 ft 301 kts 201°
2026-05-04 11:53 50.20832 20.02894 14179 ft 290 kts 224°
2026-05-04 11:53 50.19644 20.00403 13782 ft 283 kts 246°
2026-05-04 11:53 50.19068 19.97466 13357 ft 281 kts 260°
2026-05-04 11:55 50.16496 19.76428 10377 ft 285 kts 257°
2026-05-04 11:55 50.16037 19.73366 9943 ft 286 kts 258°
2026-05-04 11:56 50.15615 19.70350 9519 ft 286 kts 259°
2026-05-04 11:56 50.15210 19.67308 9092 ft 286 kts 259°
2026-05-04 11:56 50.14814 19.64305 8671 ft 286 kts 259°
2026-05-04 11:56 50.14398 19.61235 8324 ft 289 kts 259°
2026-05-04 11:57 50.14002 19.58133 7880 ft 289 kts 259°
2026-05-04 11:57 50.13594 19.55127 7433 ft 282 kts 258°
2026-05-04 11:57 50.13189 19.52194 7006 ft 274 kts 258°
2026-05-04 11:57 50.12781 19.49338 6579 ft 266 kts 258°
2026-05-04 11:58 50.12357 19.46540 6150 ft 260 kts 258°
2026-05-04 11:58 50.11927 19.43838 5724 ft 255 kts 258°
2026-05-04 11:58 50.11510 19.41149 5310 ft 251 kts 258°
2026-05-04 11:58 50.11124 19.38606 5105 ft 239 kts 258°
2026-05-04 11:59 50.10758 19.36112 5018 ft 230 kts 259°
2026-05-04 11:59 50.10421 19.33660 5004 ft 229 kts 260°
2026-05-04 11:59 50.10112 19.31248 4988 ft 227 kts 261°
2026-05-04 11:59 50.09706 19.28858 4981 ft 227 kts 249°
2026-05-04 12:00 50.08714 19.27029 4993 ft 225 kts 219°
2026-05-04 12:00 50.07218 19.26299 4998 ft 235 kts 188°
2026-05-04 12:00 50.05596 19.26904 5000 ft 246 kts 157°
2026-05-04 12:00 50.04241 19.28593 5000 ft 252 kts 137°
2026-05-04 12:01 50.03193 19.30735 5002 ft 252 kts 126°
2026-05-04 12:01 50.02318 19.33101 4993 ft 249 kts 119°
2026-05-04 12:02 50.03470 19.48479 4806 ft 225 kts 75°
2026-05-04 12:03 50.03820 19.50808 4466 ft 219 kts 75°
2026-05-04 12:03 50.04163 19.53090 4136 ft 214 kts 75°
2026-05-04 12:03 50.04498 19.55313 3810 ft 210 kts 75°
2026-05-04 12:03 50.04824 19.57498 3523 ft 202 kts 76°
2026-05-04 12:04 50.05132 19.59549 3295 ft 187 kts 77°
2026-05-04 12:04 50.05416 19.61482 2932 ft 177 kts 79°
2026-05-04 12:04 50.05659 19.63309 2648 ft 168 kts 78°
2026-05-04 12:04 50.05899 19.65024 2459 ft 162 kts 77°
2026-05-04 12:05 50.06151 19.66753 2296 ft 164 kts 77°
2026-05-04 12:05 50.06385 19.68487 2113 ft 165 kts 84°
2026-05-04 12:05 50.06589 19.70246 1882 ft 166 kts 79°
2026-05-04 12:05 50.06851 19.72008 1638 ft 164 kts 77°
2026-05-04 12:06 50.07095 19.73733 1341 ft 164 kts 77°
2026-05-04 12:06 50.07337 19.75422 1039 ft 154 kts 77°
2026-05-04 12:06 50.07580 19.77049 872 ft 147 kts 76°
2026-05-04 12:06 50.07768 19.78444 805 ft 104 kts 77°
2026-05-04 12:07 50.07881 19.79129 805 ft 42 kts 77°
2026-05-04 12:07 50.07929 19.79539 805 ft 35 kts 78°
2026-05-04 12:07 50.07969 19.79830 805 ft 13 kts 78°
2026-05-04 12:07 50.07986 19.79956 805 ft 14 kts 79°
2026-05-04 12:08 50.07992 19.80208 805 ft 25 kts 103°
2026-05-04 12:08 50.07901 19.80299 805 ft 27 kts 168°
2026-05-04 12:08 50.07682 19.80372 805 ft 23 kts 175°
2026-05-04 12:08 50.07516 19.80392 805 ft 21 kts 175°
2026-05-04 12:09 50.07424 19.80390 805 ft 5 kts 141°
2026-05-04 12:09 50.07421 19.80397 805 ft 0 kts 129°